Location: ?
(35.4996°N, 139.3166°E)
Time: 04:11:47
(UTC+00:00)

Meteor 1-18 Rocket - Pass Details

Date: 18 April 2024
Orbit: 836 x 908 km, 81.2° (Epoch: 20 May)

Event Time Altitude Azimuth Distance (km) Brightness Sun altitude
Exits shadow 17:51:38 54° 179° (S) 1,034 4.4 -25.3°
Maximum altitude 17:53:00 84° 97° (E) 869 4.2 -25.1°
Drops below altitude 10° 17:58:45 10° 10° (N) 2,527 7.2 -24.2°
Sets 18:01:13 0° 10° (N) 3,480 8.0 -23.7°
